Location: Dover
(48.8500°N, 53.9833°W)
Time: 16:35:56
(UTC+00:00)

SJ 16-02 - Pass Details

Date: 14 November 2025
Orbit: 585 x 594 km, 75.0° (Epoch: 13 December)

Event Time Altitude Azimuth Distance (km) Brightness Sun altitude
Rises 22:34:21 0° 196° (SSW) 2,824 4.9 -25.9°
Reaches altitude 10° 22:36:33 10° 196° (SSW) 1,927 4.0 -26.2°
Enters shadow 22:38:00 21° 194° (SSW) 1,359 3.2 -26.5°
